Weather History for Meadville, PA

Change the Weather History Date:

Sunday, December 9, 2012

  Actual Average Record
Temperature  
Mean Temperature 41 °F -  
Max Temperature 52 °F 40 °F 65 °F (1966)
Min Temperature 32 °F 25 °F 2 °F (1977)
Degree Days  
Heating Degree Days 24    
Moisture  
Dew Point 36 °F    
Average Humidity 83    
Maximum Humidity 96    
Minimum Humidity 70    
Precipitation  
Precipitation 0.20 in - - ()
Sea Level Pressure  
Sea Level Pressure 30.00 in    
Wind  
Wind Speed 7 mph (ENE)    
Max Wind Speed 12 mph    
Max Gust Speed 20 mph    
Visibility 9 miles    
Events Rain    
Averages and records for this station are not official NWS values.
T = Trace of Precipitation, MM = Missing Value Source: NWS Daily Summary

Daily Weather History Graph

Daily Weather History Graph

Search for Another Location

Airport:

Trip Planner

Search our weather history database for the weather conditions in past years. The results will help you decide how hot, cold, wet, or windy it might be!

Date:

Astronomy

Dec. 09, 2012 Rise Set
Actual Time 7:36 AM EST 4:50 PM EST
Civil Twilight 7:05 AM EST 5:21 PM EST
Nautical Twilight 6:30 AM EST 5:56 PM EST
Astronomical Twilight 5:56 AM EST 6:30 PM EST
Moon 3:04 AM EST (12/9) 1:58 PM EST (12/9)
Length of Visible Light 10h 16m
Length of Day
9h 14m
Waning Crescent, 19% of the Moon is Illuminated
Dec 9
Waning Crescent
Dec 13
New
Dec 20
First Quarter
Dec 28
Full
Jan 4
Last Quarter

Hourly Weather History & Observations

Time (EST) Temp. Windchill Dew Point Humidity Pressure Visibility Wind Dir Wind Speed Gust Speed Precip Events Conditions
12:53 AM 35.1 °F 30.1 °F 30.9 °F 85% 30.15 in 10.0 mi North 5.8 mph - N/A   Overcast
1:06 AM 35.6 °F 30.7 °F 30.2 °F 81% 30.12 in 10.0 mi NNE 5.8 mph - N/A   Overcast
1:53 AM 35.1 °F 27.4 °F 30.0 °F 82% 30.15 in 10.0 mi NE 10.4 mph - N/A   Overcast
2:53 AM 35.1 °F 27.4 °F 28.9 °F 78% 30.17 in 10.0 mi NE 10.4 mph - N/A   Overcast
3:53 AM 34.0 °F 28.0 °F 28.0 °F 79% 30.17 in 10.0 mi NE 6.9 mph - N/A   Overcast
4:53 AM 33.1 °F 27.7 °F 28.0 °F 82% 30.16 in 10.0 mi ENE 5.8 mph - N/A   Overcast
5:35 AM 33.8 °F 29.6 °F 28.4 °F 81% 30.14 in 10.0 mi East 4.6 mph - N/A   Partly Cloudy
5:53 AM 33.1 °F 30.0 °F 28.0 °F 82% 30.19 in 10.0 mi ENE 3.5 mph - N/A   Clear
6:53 AM 32.0 °F 25.6 °F 28.0 °F 85% 30.17 in 10.0 mi NE 6.9 mph - N/A   Partly Cloudy
7:53 AM 33.1 °F 25.5 °F 28.0 °F 82% 30.16 in 10.0 mi ENE 9.2 mph - N/A   Mostly Cloudy
8:53 AM 33.1 °F 28.7 °F 28.9 °F 85% 30.17 in 10.0 mi East 4.6 mph - N/A   Overcast
9:53 AM 36.0 °F 29.6 °F 28.9 °F 76% 30.15 in 10.0 mi East 8.1 mph - N/A   Overcast
10:53 AM 39.0 °F 35.7 °F 30.0 °F 70% 30.12 in 10.0 mi Variable 4.6 mph - N/A   Overcast
11:37 AM 39.2 °F 33.6 °F 30.2 °F 70% 30.04 in 10.0 mi ESE 8.1 mph - N/A   Overcast
11:53 AM 39.9 °F 32.9 °F 30.9 °F 70% 30.06 in 10.0 mi ESE 11.5 mph 19.6 mph N/A   Overcast
12:53 PM 42.1 °F 38.4 °F 33.1 °F 70% 30.02 in 10.0 mi Variable 5.8 mph 16.1 mph N/A   Overcast
1:16 PM 42.8 °F 39.3 °F 33.8 °F 70% 29.98 in 10.0 mi Variable 5.8 mph - N/A   Overcast
1:53 PM 43.0 °F 39.5 °F 35.1 °F 74% 30.01 in 10.0 mi Variable 5.8 mph - N/A   Overcast
2:53 PM 43.0 °F 39.5 °F 37.0 °F 80% 29.97 in 10.0 mi Variable 5.8 mph - N/A   Overcast
3:34 PM 42.8 °F 39.3 °F 37.4 °F 81% 29.93 in 10.0 mi Variable 5.8 mph - N/A   Overcast
3:53 PM 43.0 °F 39.5 °F 37.0 °F 80% 29.95 in 10.0 mi Variable 5.8 mph 17.3 mph 0.00 in Rain Light Rain
4:53 PM 42.1 °F 37.7 °F 37.9 °F 85% 29.91 in 10.0 mi Variable 6.9 mph - 0.01 in Rain Light Rain
5:17 PM 42.8 °F 39.3 °F 39.2 °F 87% 29.87 in 10.0 mi Variable 5.8 mph - 0.01 in Rain Light Rain
5:53 PM 43.0 °F 40.3 °F 39.9 °F 89% 29.88 in 10.0 mi Variable 4.6 mph - 0.01 in   Overcast
6:53 PM 44.1 °F 40.8 °F 42.1 °F 93% 29.86 in 6.0 mi Variable 5.8 mph - 0.06 in Rain Light Rain
7:53 PM 46.0 °F 43.9 °F 44.1 °F 93% 29.84 in 10.0 mi SSE 4.6 mph - 0.01 in   Overcast
8:53 PM 48.0 °F - 46.0 °F 93% 29.81 in 6.0 mi Variable 5.8 mph - 0.01 in Rain Light Rain
9:53 PM 48.9 °F - 46.9 °F 93% 29.79 in 5.0 mi Variable 6.9 mph - 0.00 in   Overcast
10:16 PM 50.0 °F - 48.2 °F 94% 29.76 in 1.8 mi Variable 3.5 mph - 0.06 in Rain Rain
10:25 PM 50.0 °F - 48.2 °F 94% 29.76 in 3.0 mi Variable 5.8 mph - 0.08 in Rain Light Rain
10:53 PM 50.0 °F - 48.9 °F 96% 29.76 in 3.0 mi Variable 3.5 mph - 0.09 in Rain Light Rain
11:53 PM 52.0 °F - 50.0 °F 93% 29.72 in 6.0 mi SSE 8.1 mph - 0.01 in   Overcast